| time (UTC) | temp C | wind direction | speed KPH | gust KPH | rain 1hr cm | rain 24hr cm | rain mn cm | humidity % | barometer mb |
| 20260505022523 | 18 | 309 | 6.4 | 12.9 | 0.00 | 0.00 | 0.00 | 67 | 1008.7 |
| 20260505022035 | 18 | 211 | 4.8 | 14.5 | 0.00 | 0.00 | 0.00 | 66 | 1008.7 |
| 20260505021547 | 18 | 258 | 4.8 | 14.5 | 0.00 | 0.00 | 0.00 | 66 | 1008.7 |
| 20260505021055 | 18 | 21 | 6.4 | 19.3 | 0.00 | 0.00 | 0.00 | 65 | 1008.7 |
| 20260505020539 | 18 | 330 | 9.7 | 19.3 | 0.00 | 0.00 | 0.00 | 64 | 1008.6 |
| 20260505015538 | 18 | 281 | 6.4 | 14.5 | 0.00 | 0.00 | 0.00 | 64 | 1008.5 |
| 20260505015042 | 18 | 275 | 6.4 | 14.5 | 0.00 | 0.00 | 0.00 | 64 | 1008.6 |
| 20260505014526 | 19 | 325 | 4.8 | 14.5 | 0.00 | 0.00 | 0.00 | 64 | 1008.6 |
| 20260505014026 | 19 | 267 | 6.4 | 14.5 | 0.00 | 0.00 | 0.00 | 64 | 1008.7 |
| 20260505013558 | 19 | 318 | 3.2 | 14.5 | 0.00 | 0.00 | 0.00 | 65 | 1008.7 |
| 20260505013023 | 19 | 25 | 3.2 | 9.7 | 0.00 | 0.00 | 0.00 | 66 | 1008.8 |
| 20260505012527 | 19 | 18 | 3.2 | 8.0 | 0.00 | 0.00 | 0.00 | 66 | 1008.7 |
| 20260505012036 | 19 | 217 | 1.6 | 8.0 | 0.00 | 0.00 | 0.00 | 66 | 1008.8 |
| 20260505011529 | 20 | 339 | 3.2 | 8.0 | 0.00 | 0.00 | 0.00 | 65 | 1008.8 |
| 20260505011048 | 20 | 97 | 0.0 | 6.4 | 0.00 | 0.00 | 0.00 | 65 | 1008.9 |
| 20260505010539 | 20 | 262 | 1.6 | 8.0 | 0.00 | 0.00 | 0.00 | 64 | 1008.8 |
| 20260505010036 | 20 | 247 | 3.2 | 9.7 | 0.00 | 0.00 | 0.00 | 63 | 1008.8 |
| 20260505005529 | 20 | 292 | 3.2 | 9.7 | 0.00 | 0.00 | 0.00 | 61 | 1008.9 |
| 20260505005058 | 20 | 23 | 1.6 | 6.4 | 0.00 | 0.00 | 0.00 | 61 | 1008.9 |
| 20260505004550 | 20 | 284 | 1.6 | 8.0 | 0.00 | 0.00 | 0.00 | 60 | 1008.9 |
| 20260505004059 | 21 | 233 | 1.6 | 8.0 | 0.00 | 0.00 | 0.00 | 59 | 1008.9 |
| 20260505003541 | 21 | 112 | 1.6 | 6.4 | 0.00 | 0.00 | 0.00 | 58 | 1008.9 |
| 20260505003031 | 21 | 52 | 1.6 | 6.4 | 0.00 | 0.00 | 0.00 | 59 | 1008.9 |
| 20260505002541 | 21 | 52 | 1.6 | 6.4 | 0.00 | 0.00 | 0.00 | 58 | 1008.9 |
| 20260505002109 | 22 | 247 | 0.0 | 6.4 | 0.00 | 0.00 | 0.00 | 58 | 1008.9 |
| 20260505001531 | 22 | 217 | 1.6 | 8.0 | 0.00 | 0.00 | 0.00 | 57 | 1008.8 |
| 20260505001029 | 22 | 214 | 3.2 | 8.0 | 0.00 | 0.00 | 0.00 | 56 | 1008.9 |
| 20260505000540 | 22 | 160 | 1.6 | 4.8 | 0.00 | 0.00 | 0.00 | 57 | 1008.9 |
| 20260505000050 | 22 | 218 | 1.6 | 4.8 | 0.00 | 0.00 | 0.00 | 57 | 1008.9 |
| 20260504235531 | 22 | 219 | 1.6 | 4.8 | 0.00 | 0.00 | 0.00 | 56 | 1008.9 |
| 20260504235022 | 22 | 223 | 1.6 | 8.0 | 0.00 | 0.00 | 0.00 | 57 | 1009.0 |
| 20260504234525 | 22 | 242 | 1.6 | 8.0 | 0.00 | 0.00 | 0.00 | 57 | 1008.9 |
| 20260504234041 | 22 | 236 | 1.6 | 6.4 | 0.00 | 0.00 | 0.00 | 57 | 1009.0 |
| 20260504233524 | 23 | 210 | 3.2 | 4.8 | 0.00 | 0.00 | 0.00 | 56 | 1009.1 |
| 20260504233037 | 23 | 190 | 1.6 | 4.8 | 0.00 | 0.00 | 0.00 | 56 | 1009.1 |
| 20260504232547 | 23 | 280 | 1.6 | 4.8 | 0.00 | 0.00 | 0.00 | 57 | 1009.0 |
| 20260504232030 | 22 | 294 | 1.6 | 6.4 | 0.00 | 0.00 | 0.00 | 57 | 1008.9 |
| 20260504231542 | 22 | 307 | 0.0 | 6.4 | 0.00 | 0.00 | 0.00 | 58 | 1008.9 |
| 20260504231051 | 23 | 337 | 4.8 | 6.4 | 0.00 | 0.00 | 0.00 | 58 | 1009.0 |
| 20260504230535 | 23 | 315 | 3.2 | 6.4 | 0.00 | 0.00 | 0.00 | 51 | 1008.9 |
| 20260504230026 | 23 | 278 | 1.6 | 4.8 | 0.00 | 0.00 | 0.00 | 51 | 1008.9 |
| 20260504225528 | 23 | 241 | 1.6 | 9.7 | 0.00 | 0.00 | 0.00 | 52 | 1008.9 |
| 20260504225040 | 23 | 120 | 4.8 | 9.7 | 0.00 | 0.00 | 0.00 | 52 | 1009.0 |
| 20260504224532 | 24 | 233 | 1.6 | 12.9 | 0.00 | 0.00 | 0.00 | 51 | 1009.0 |
| 20260504224101 | 23 | 132 | 4.8 | 12.9 | 0.00 | 0.00 | 0.00 | 50 | 1008.9 |
| 20260504223523 | 23 | 37 | 4.8 | 12.9 | 0.00 | 0.00 | 0.00 | 50 | 1009.0 |
| 20260504223034 | 23 | 116 | 3.2 | 9.7 | 0.00 | 0.00 | 0.00 | 50 | 1009.0 |
| 20260504222526 | 22 | 168 | 1.6 | 6.4 | 0.00 | 0.00 | 0.00 | 56 | 1009.1 |
| 20260504222029 | 22 | 124 | 1.6 | 8.0 | 0.00 | 0.00 | 0.00 | 63 | 1009.2 |
| 20260504221542 | 21 | 120 | 4.8 | 17.7 | 0.00 | 0.00 | 0.00 | 65 | 1009.3 |
| 20260504221031 | 21 | 118 | 11.3 | 17.7 | 0.00 | 0.00 | 0.00 | 63 | 1009.4 |
| 20260504220543 | 22 | 173 | 9.7 | 12.9 | 0.00 | 0.00 | 0.00 | 60 | 1009.4 |
| 20260504220050 | 21 | 125 | 9.7 | 12.9 | 0.00 | 0.00 | 0.00 | 65 | 1009.6 |
| 20260504215532 | 21 | 123 | 9.7 | 12.9 | 0.00 | 0.00 | 0.00 | 63 | 1009.5 |
| 20260504215023 | 20 | 137 | 8.0 | 9.7 | 0.00 | 0.00 | 0.00 | 71 | 1009.5 |
| 20260504214535 | 20 | 122 | 6.4 | 11.3 | 0.00 | 0.00 | 0.00 | 72 | 1009.6 |
| 20260504214108 | 20 | 114 | 8.0 | 14.5 | 0.00 | 0.00 | 0.00 | 72 | 1009.7 |
| 20260504213531 | 20 | 117 | 11.3 | 16.1 | 0.00 | 0.00 | 0.00 | 68 | 1009.8 |
| 20260504213041 | 21 | 121 | 11.3 | 16.1 | 0.00 | 0.00 | 0.00 | 62 | 1009.7 |
| 20260504212548 | 21 | 126 | 9.7 | 14.5 | 0.00 | 0.00 | 0.00 | 59 | 1009.7 |
| 20260504212100 | 21 | 125 | 11.3 | 12.9 | 0.00 | 0.00 | 0.00 | 60 | 1009.6 |
| 20260504211551 | 21 | 131 | 11.3 | 11.3 | 0.00 | 0.00 | 0.00 | 61 | 1009.8 |
| 20260504211042 | 21 | 132 | 6.4 | 8.0 | 0.00 | 0.00 | 0.00 | 62 | 1009.8 |
| 20260504210525 | 20 | 126 | 6.4 | 8.0 | 0.00 | 0.00 | 0.00 | 64 | 1009.9 |
| 20260504210037 | 20 | 133 | 6.4 | 8.0 | 0.00 | 0.00 | 0.00 | 66 | 1010.0 |
| 20260504205549 | 20 | 126 | 6.4 | 8.0 | 0.00 | 0.00 | 0.00 | 70 | 1009.9 |
| 20260504205032 | 20 | 125 | 6.4 | 8.0 | 0.00 | 0.00 | 0.00 | 69 | 1010.0 |
| 20260504204545 | 21 | 121 | 4.8 | 9.7 | 0.00 | 0.00 | 0.00 | 61 | 1010.0 |
| 20260504204053 | 20 | 131 | 6.4 | 9.7 | 0.00 | 0.00 | 0.00 | 62 | 1010.0 |
| 20260504203544 | 20 | 117 | 8.0 | 9.7 | 0.00 | 0.00 | 0.00 | 61 | 1010.0 |
| 20260504203051 | 20 | 128 | 8.0 | 9.7 | 0.00 | 0.00 | 0.00 | 63 | 1010.0 |
| 20260504202533 | 20 | 128 | 9.7 | 9.7 | 0.00 | 0.00 | 0.00 | 63 | 1010.0 |
| 20260504202025 | 20 | 129 | 8.0 | 9.7 | 0.00 | 0.00 | 0.00 | 63 | 1010.1 |
| 20260504201533 | 20 | 124 | 6.4 | 9.7 | 0.00 | 0.00 | 0.00 | 63 | 1010.1 |
| 20260504201045 | 19 | 119 | 8.0 | 9.7 | 0.00 | 0.00 | 0.00 | 63 | 1010.1 |
| 20260504200528 | 20 | 127 | 8.0 | 9.7 | 0.00 | 0.00 | 0.00 | 63 | 1010.0 |
| 20260504200039 | 20 | 127 | 8.0 | 9.7 | 0.00 | 0.00 | 0.00 | 65 | 1010.1 |
| 20260504195552 | 19 | 121 | 8.0 | 9.7 | 0.00 | 0.00 | 0.00 | 65 | 1010.1 |
| 20260504195104 | 19 | 124 | 9.7 | 11.3 | 0.00 | 0.00 | 0.00 | 65 | 1010.1 |
| 20260504194524 | 18 | 126 | 9.7 | 11.3 | 0.00 | 0.00 | 0.00 | 68 | 1010.1 |
| 20260504194055 | 18 | 127 | 9.7 | 11.3 | 0.00 | 0.00 | 0.00 | 70 | 1010.1 |
| 20260504193527 | 17 | 131 | 8.0 | 11.3 | 0.00 | 0.00 | 0.00 | 78 | 1010.1 |
| 20260504193058 | 17 | 135 | 8.0 | 11.3 | 0.00 | 0.00 | 0.00 | 81 | 1010.2 |
| 20260504192549 | 17 | 136 | 8.0 | 14.5 | 0.00 | 0.00 | 0.00 | 82 | 1010.1 |
| 20260504192032 | 17 | 119 | 11.3 | 14.5 | 0.00 | 0.00 | 0.00 | 82 | 1010.2 |
| 20260504191525 | 16 | 125 | 12.9 | 16.1 | 0.00 | 0.00 | 0.00 | 82 | 1010.1 |
| 20260504191028 | 16 | 128 | 12.9 | 16.1 | 0.00 | 0.00 | 0.00 | 81 | 1010.2 |
| 20260504190536 | 17 | 124 | 11.3 | 14.5 | 0.00 | 0.00 | 0.00 | 81 | 1010.2 |
| 20260504190048 | 17 | 124 | 9.7 | 14.5 | 0.00 | 0.00 | 0.00 | 81 | 1010.3 |
| 20260504185600 | 17 | 118 | 11.3 | 16.1 | 0.00 | 0.00 | 0.00 | 79 | 1010.3 |
| 20260504185029 | 17 | 130 | 12.9 | 16.1 | 0.00 | 0.00 | 0.00 | 79 | 1010.3 |
| 20260504184600 | 16 | 128 | 11.3 | 14.5 | 0.00 | 0.00 | 0.00 | 82 | 1010.3 |
| 20260504184047 | 16 | 119 | 8.0 | 16.1 | 0.00 | 0.00 | 0.00 | 82 | 1010.5 |
| 20260504183530 | 16 | 123 | 11.3 | 16.1 | 0.00 | 0.00 | 0.00 | 82 | 1010.3 |
| 20260504183023 | 16 | 136 | 9.7 | 14.5 | 0.00 | 0.00 | 0.00 | 83 | 1010.3 |
| 20260504182535 | 16 | 129 | 9.7 | 12.9 | 0.00 | 0.00 | 0.00 | 85 | 1010.3 |
| 20260504182037 | 16 | 120 | 11.3 | 12.9 | 0.00 | 0.00 | 0.00 | 85 | 1010.4 |
| 20260504181528 | 16 | 129 | 9.7 | 11.3 | 0.00 | 0.00 | 0.00 | 85 | 1010.4 |
| 20260504181040 | 16 | 123 | 8.0 | 9.7 | 0.00 | 0.00 | 0.00 | 83 | 1010.5 |
| 20260504180551 | 16 | 122 | 8.0 | 9.7 | 0.00 | 0.00 | 0.00 | 83 | 1010.5 |
| 20260504180034 | 16 | 136 | 6.4 | 8.0 | 0.00 | 0.00 | 0.00 | 84 | 1010.5 |
| 20260504175543 | 16 | 141 | 4.8 | 6.4 | 0.00 | 0.00 | 0.00 | 84 | 1010.5 |
| 20260504175032 | 16 | 141 | 3.2 | 6.4 | 0.00 | 0.00 | 0.00 | 83 | 1010.5 |
| 20260504174537 | 16 | 126 | 4.8 | 6.4 | 0.00 | 0.00 | 0.00 | 83 | 1010.3 |
| 20260504174029 | 16 | 122 | 4.8 | 8.0 | 0.00 | 0.00 | 0.00 | 83 | 1010.3 |
| 20260504173540 | 16 | 124 | 4.8 | 8.0 | 0.00 | 0.00 | 0.00 | 83 | 1010.3 |
| 20260504173040 | 16 | 120 | 6.4 | 8.0 | 0.00 | 0.00 | 0.00 | 82 | 1010.3 |
| 20260504172533 | 16 | 157 | 6.4 | 8.0 | 0.00 | 0.00 | 0.00 | 81 | 1010.2 |
| 20260504172045 | 16 | 129 | 4.8 | 6.4 | 0.00 | 0.00 | 0.00 | 82 | 1010.3 |
| 20260504171528 | 16 | 203 | 1.6 | 3.2 | 0.00 | 0.00 | 0.00 | 81 | 1010.3 |
| 20260504171059 | 16 | 203 | 0.0 | 4.8 | 0.00 | 0.00 | 0.00 | 81 | 1010.4 |
| 20260504170531 | 15 | 202 | 1.6 | 4.8 | 0.00 | 0.00 | 0.00 | 83 | 1010.4 |
| 20260504151031 | 15 | 113 | 4.8 | 9.7 | 0.00 | 0.00 | 0.00 | 83 | 1009.9 |
| 20260504150611 | 15 | 131 | 4.8 | 9.7 | 0.00 | 0.00 | 0.00 | 81 | 1009.9 |
| 20260504141034 | 14 | 132 | 6.4 | 11.3 | 0.00 | 0.00 | 0.00 | 85 | 1009.4 |
| 20260504140542 | 14 | 134 | 6.4 | 11.3 | 0.00 | 0.00 | 0.00 | 85 | 1009.4 |
| 20260504130529 | 12 | 207 | 0.0 | 0.0 | 0.00 | 0.00 | 0.00 | 86 | 1008.9 |
| 20260504110548 | 13 | 207 | 0.0 | 0.0 | 0.00 | 0.00 | 0.00 | 81 | 1008.9 |
| 20260504100551 | 13 | 207 | 0.0 | 0.0 | 0.00 | 0.00 | 0.00 | 86 | 1009.0 |
| 20260504090105 | 13 | 207 | 0.0 | 0.0 | 0.00 | 0.00 | 0.00 | 80 | 1008.8 |
| 20260504081611 | 14 | 207 | 0.0 | 0.0 | 0.00 | 0.00 | 0.00 | 77 | 1008.8 |
| 20260504081032 | 14 | 207 | 0.0 | 0.0 | 0.00 | 0.00 | 0.00 | 78 | 1008.8 |
| 20260504080545 | 14 | 207 | 0.0 | 0.0 | 0.00 | 0.00 | 0.00 | 78 | 1008.8 |
| 20260504060104 | 17 | 239 | 1.6 | 3.2 | 0.00 | 0.00 | 0.00 | 64 | 1008.8 |
| 20260504050541 | 18 | 245 | 1.6 | 4.8 | 0.00 | 0.00 | 0.00 | 67 | 1008.9 |
| 20260504045538 | 18 | 257 | 1.6 | 4.8 | 0.00 | 0.00 | 0.00 | 64 | 1009.0 |
| 20260504045039 | 18 | 255 | 1.6 | 3.2 | 0.00 | 0.00 | 0.00 | 64 | 1009.0 |
| 20260504044531 | 18 | 257 | 1.6 | 3.2 | 0.00 | 0.00 | 0.00 | 64 | 1009.0 |
| 20260504044043 | 18 | 257 | 1.6 | 3.2 | 0.00 | 0.00 | 0.00 | 64 | 1008.9 |
| 20260504043526 | 18 | 257 | 1.6 | 3.2 | 0.00 | 0.00 | 0.00 | 64 | 1009.0 |
| 20260504043038 | 18 | 251 | 0.0 | 3.2 | 0.00 | 0.00 | 0.00 | 64 | 1008.8 |
| 20260504042528 | 18 | 250 | 1.6 | 3.2 | 0.00 | 0.00 | 0.00 | 63 | 1008.8 |
| 20260504042031 | 18 | 250 | 1.6 | 3.2 | 0.00 | 0.00 | 0.00 | 62 | 1008.9 |
| 20260504041543 | 18 | 250 | 1.6 | 3.2 | 0.00 | 0.00 | 0.00 | 62 | 1008.9 |
| 20260504041042 | 18 | 251 | 1.6 | 3.2 | 0.00 | 0.00 | 0.00 | 61 | 1008.8 |
| 20260504040534 | 18 | 250 | 1.6 | 3.2 | 0.00 | 0.00 | 0.00 | 62 | 1008.9 |
| 20260504040047 | 18 | 250 | 1.6 | 3.2 | 0.00 | 0.00 | 0.00 | 61 | 1008.8 |
| 20260504035551 | 18 | 254 | 1.6 | 1.6 | 0.00 | 0.00 | 0.00 | 60 | 1008.8 |
| 20260504035023 | 18 | 254 | 0.0 | 0.0 | 0.00 | 0.00 | 0.00 | 60 | 1008.8 |
| 20260504034552 | 18 | 254 | 0.0 | 0.0 | 0.00 | 0.00 | 0.00 | 58 | 1008.7 |
| 20260504034102 | 18 | 254 | 0.0 | 0.0 | 0.00 | 0.00 | 0.00 | 59 | 1008.7 |
| 20260504033524 | 18 | 254 | 0.0 | 0.0 | 0.00 | 0.00 | 0.00 | 62 | 1008.6 |
| 20260504033037 | 18 | 254 | 0.0 | 0.0 | 0.00 | 0.00 | 0.00 | 65 | 1008.7 |
| 20260504032530 | 18 | 254 | 0.0 | 0.0 | 0.00 | 0.00 | 0.00 | 66 | 1008.6 |
| 20260504032103 | 19 | 254 | 0.0 | 0.0 | 0.00 | 0.00 | 0.00 | 66 | 1008.5 |
| 20260504031552 | 20 | 254 | 0.0 | 0.0 | 0.00 | 0.00 | 0.00 | 66 | 1008.5 |
| 20260504031104 | 20 | 254 | 0.0 | 0.0 | 0.00 | 0.00 | 0.00 | 58 | 1008.5 |
| 20260504030526 | 21 | 254 | 0.0 | 1.6 | 0.00 | 0.00 | 0.00 | 57 | 1008.5 |
| 20260504030039 | 21 | 254 | 0.0 | 3.2 | 0.00 | 0.00 | 0.00 | 53 | 1008.6 |
| 20260504025530 | 21 | 254 | 1.6 | 4.8 | 0.00 | 0.00 | 0.00 | 51 | 1008.6 |
| 20260504025043 | 21 | 265 | 1.6 | 4.8 | 0.00 | 0.00 | 0.00 | 52 | 1008.6 |
| 20260504024526 | 21 | 269 | 1.6 | 6.4 | 0.00 | 0.00 | 0.00 | 52 | 1008.7 |
| 20260504024039 | 21 | 257 | 3.2 | 8.0 | 0.00 | 0.00 | 0.00 | 52 | 1008.6 |
| 20260504023523 | 21 | 285 | 3.2 | 8.0 | 0.00 | 0.00 | 0.00 | 53 | 1008.6 |
| 20260504023032 | 21 | 277 | 3.2 | 9.7 | 0.00 | 0.00 | 0.00 | 52 | 1008.6 |